1393718433305,1.17242
1393718493305,1.18570
1393718553305,1.18647
1393718613305,1.18058
1393718673305,1.18238
1393718733305,1.17961
1393718793305,1.19185
1393718853305,1.20695
1393718913305,1.24250
1393718973305,1.27893
1393719033305,1.28273
1393719093305,1.29329
1393719153305,1.31476
1393719213305,1.32971
1393719273305,1.36735
1393719333305,1.38427
1393719393305,1.38423
1393719453305,1.38061
1393719513305,1.37230
1393719573305,1.36441
1393719633305,1.35391
1393719693305,1.34331
1393719753305,1.33375
1393719813305,1.32303
1393719873305,1.31434
1393719933305,1.30841
1393719993305,1.29310
1393720053305,1.28707
1393720113305,1.27714
1393720173305,1.28308
1393720233305,1.28292
1393720293305,1.27608
1393720353305,1.27945
1393720413305,1.28267
1393720473305,1.27480
1393720533305,1.28273
1393720593305,1.26795
1393720653305,1.27212
1393720713305,1.26726
1393720773305,1.27273
1393720833305,1.25555
1393720893305,1.26189
1393720953305,1.26528
1393721013305,1.26189
1393721073305,1.24962
1393721133305,1.26578
1393721193305,1.25396
1393721253305,1.24961
1393721313305,1.26305
1393721373305,1.25498
1393721433305,1.25097
1393721493305,1.24833
1393721553305,1.25026
1393721613305,1.25340
1393721673305,1.25235
1393721733305,1.25384
1393721793305,1.26119
1393721853305,1.24908
1393721913305,1.26138
1393721973305,1.25537
1393722033318,1.24628
1393722093318,1.25814
1393722153318,1.24162
1393722213318,1.25448
1393722273318,1.25073
1393722333318,1.24844
1393722393318,1.24918
1393722453318,1.25107
1393722513318,1.24821
1393722573318,1.24033
1393722633318,1.24336
1393722693318,1.24003
1393722753318,1.23945
1393722813318,1.24301
1393722873318,1.24870
1393722933318,1.24187
1393722993318,1.24202
1393723053318,1.23534
1393723113318,1.23706
1393723173318,1.24126
1393723233318,1.23912
1393723293318,1.23921
1393723353318,1.22568
1393723413318,1.23874
1393723473318,1.23532
1393723533318,1.23454
1393723593318,1.23639
1393723653318,1.23031
1393723713318,1.23517
1393723773318,1.23368
1393723833318,1.24061
1393723893318,1.23438
1393723953318,1.23835
1393724013318,1.23214
1393724073318,1.24081
1393724133318,1.23175
1393724193318,1.23952
1393724253318,1.23254
1393724313318,1.23168
1393724373318,1.22706
1393724433318,1.22772
1393724493318,1.24216
1393724553318,1.23322
1393724613318,1.22593
1393724673318,1.22493
1393724733318,1.22061
1393724793318,1.22438
1393724853318,1.22466
1393724913318,1.21982
1393724973318,1.22570
1393725033318,1.22293
1393725093318,1.21560
1393725153318,1.20367
1393725213318,1.21373
1393725273318,1.21099
1393725333318,1.21229
1393725393318,1.21188
1393725453318,1.20910
1393725513318,1.21801
1393725573318,1.22600
1393725633331,1.22322
1393725693331,1.23057
1393725753331,1.23227
1393725813331,1.22984
1393725873331,1.21920
1393725933331,1.21818
1393725993331,1.22264
1393726053331,1.21143
1393726113331,1.21074
1393726173331,1.20634
1393726233331,1.20452
1393726293331,1.20746
1393726353331,1.21512
1393726413331,1.21262
1393726473331,1.20797
1393726533331,1.21511
1393726593331,1.20376
1393726653331,1.20943
1393726713331,1.20643
1393726773331,1.20229
1393726833331,1.19200
1393726893331,1.20362
1393726953331,1.19375
1393727013331,1.19109
1393727073331,1.18994
1393727133331,1.19499
1393727193331,1.19498
1393727253331,1.19328
1393727313331,1.19233
1393727373331,1.18823
1393727433331,1.19611
1393727493331,1.18997
1393727553331,1.18894
1393727613331,1.18372
1393727673331,1.18904
1393727733331,1.17612
1393727793331,1.18399
1393727853331,1.17373
1393727913331,1.18475
1393727973331,1.19295
1393728033331,1.18937
1393728093331,1.19749
1393728153331,1.19733
1393728213331,1.21276
1393728273331,1.21061
1393728333331,1.22605
1393728393331,1.22058
1393728453331,1.21806
1393728513331,1.22215
1393728573331,1.21271
1393728633331,1.21067
1393728693331,1.22040
1393728753331,1.22154
1393728813331,1.21665
1393728873331,1.21070
1393728933331,1.20997
1393728993331,1.21376
1393729053331,1.21083
1393729113331,1.20014
1393729173331,1.20386
1393729233344,1.20068
1393729293344,1.20719
1393729353344,1.20717
1393729413344,1.19461
1393729473344,1.19772
1393729533344,1.19069
1393729593344,1.19566
1393729653344,1.20039
1393729713344,1.19396
1393729773344,1.19838
1393729833344,1.19394
1393729893344,1.20189
1393729953344,1.18816
1393730013344,1.19417
1393730073344,1.19047
1393730133344,1.18449
1393730193344,1.19330
1393730253344,1.19816
1393730313344,1.19432
1393730373344,1.19846
1393730433344,1.19673
1393730493344,1.19054
1393730553344,1.20034
1393730613344,1.20090
1393730673344,1.19435
1393730733344,1.19665
1393730793344,1.18812
1393730853344,1.19773
1393730913344,1.19125
1393730973344,1.18698
1393731033344,1.19606
1393731093344,1.19374
1393731153344,1.19260
1393731213344,1.19141
1393731273344,1.18491
1393731333344,1.18200
1393731393344,1.18823
1393731453344,1.19690
1393731513344,1.19254
1393731573344,1.18407
1393731633344,1.18233
1393731693344,1.19119
1393731753344,1.18543
1393731813344,1.18741
1393731873344,1.19377
1393731933344,1.20285
1393731993344,1.20728
1393732053344,1.20133
1393732113344,1.21256
1393732173344,1.20625
1393732233344,1.20724
1393732293344,1.21903
1393732353344,1.22506
1393732413344,1.22954
1393732473344,1.23647
1393732533344,1.24156
1393732593344,1.24994
1393732653344,1.25144
1393732713344,1.25108
1393732773344,1.26484
1393732833357,1.26868
1393732893357,1.26997
1393732953357,1.26537
1393733013357,1.27201
1393733073357,1.27388
1393733133357,1.27253
1393733193357,1.27945
1393733253357,1.27884
1393733313357,1.29035
1393733373357,1.27871
1393733433357,1.28967
1393733493357,1.29247
1393733553357,1.29490
1393733613357,1.28745
1393733673357,1.28078
1393733733357,1.27963
1393733793357,1.27584
1393733853357,1.28054
1393733913357,1.27380
1393733973357,1.28084
1393734033357,1.27042
1393734093357,1.26997
1393734153357,1.26630
1393734213357,1.26970
1393734273357,1.26186
1393734333357,1.25515
1393734393357,1.26880
1393734453357,1.25480
1393734513357,1.24595
1393734573357,1.24828
1393734633357,1.24968
1393734693357,1.25036
1393734753357,1.25029
1393734813357,1.24687
1393734873357,1.24366
1393734933357,1.23104
1393734993357,1.24568
1393735053357,1.22934
1393735113357,1.23447
1393735173357,1.22866
1393735233357,1.22416
1393735293357,1.22499
1393735353357,1.22210
1393735413357,1.22616
1393735473357,1.21495
1393735533357,1.21490
1393735593357,1.20869
1393735653357,1.21117
1393735713357,1.20976
1393735773357,1.20200
1393735833357,1.19922
1393735893357,1.20109
1393735953357,1.19981
1393736013357,1.20286
1393736073357,1.20346
1393736133357,1.18675
1393736193357,1.19048
1393736253357,1.19674
1393736313357,1.19274
1393736373357,1.19665
1393736433369,1.19012
1393736493369,1.19753
1393736553369,1.19250
1393736613369,1.18090
1393736673369,1.18836
1393736733369,1.19837
1393736793369,1.18850
1393736853369,1.18953
1393736913369,1.17488
1393736973369,1.18081
1393737033369,1.18396
1393737093369,1.18774
1393737153369,1.17875
1393737213369,1.17692
1393737273369,1.17854
1393737333369,1.17524
1393737393369,1.18166
1393737453369,1.18242
1393737513369,1.17671
1393737573369,1.16380
1393737633369,1.17972
1393737693369,1.17311
1393737753369,1.17424
1393737813369,1.17665
1393737873369,1.17429
1393737933369,1.16557
1393737993369,1.17491
1393738053369,1.17413
1393738113369,1.17128
1393738173369,1.17253
1393738233369,1.17152
1393738293369,1.17227
1393738353369,1.17032
1393738413369,1.16444
1393738473369,1.16876
1393738533369,1.16653
1393738593369,1.16728
1393738653369,1.16224
1393738713369,1.16769
1393738773369,1.15862
1393738833369,1.17024
1393738893369,1.15870
1393738953369,1.16181
1393739013369,1.16179
1393739073369,1.16981
1393739133369,1.15756
1393739193369,1.16757
1393739253369,1.15808
1393739313369,1.15194
1393739373369,1.14402
1393739433369,1.15012
1393739493369,1.14768
1393739553369,1.14898
1393739613369,1.15749
1393739673369,1.14568
1393739733369,1.16098
1393739793369,1.14277
1393739853369,1.14423
1393739913369,1.14705
1393739973369,1.13559
1393740033370,1.15154
1393740093370,1.14489
1393740153370,1.14814
1393740213370,1.14530
1393740273370,1.13882
1393740333370,1.13549
1393740393370,1.13814
1393740453370,1.13974
1393740513370,1.14675
1393740573370,1.14033
1393740633370,1.14129
1393740693370,1.13491
1393740753370,1.14047
1393740813370,1.14703
1393740873370,1.14034
1393740933370,1.14235
1393740993370,1.14060
1393741053370,1.13550
1393741113370,1.13819
1393741173370,1.13617
1393741233370,1.12266
1393741293370,1.13337
1393741353370,1.13813
1393741413370,1.13378
1393741473370,1.13447
1393741533370,1.13128
1393741593370,1.13496
1393741653370,1.13140
1393741713370,1.14061
1393741773370,1.14151
1393741833370,1.13250
1393741893370,1.13949
1393741953370,1.13889
1393742013370,1.14329
1393742073370,1.13238
1393742133370,1.13411
1393742193370,1.12883
1393742253370,1.13131
1393742313370,1.12625
1393742373370,1.14328
1393742433370,1.14210
1393742493370,1.13876
1393742553370,1.13318
1393742613370,1.12845
1393742673370,1.13397
1393742733370,1.14099
1393754913417,1.14662
1393754973417,1.14836
1393755033417,1.13895
1393755093417,1.13426
1393755153417,1.13286
1393755213417,1.14633
1393755273417,1.13066
1393755333417,1.13753
1393755393417,1.13717
1393755453417,1.14308
1393755513417,1.14268
1393755573417,1.14610
1393755633417,1.14163
1393755693417,1.13163
1393755753417,1.13945
1393755813417,1.13753
1393755873417,1.13668
1393755933417,1.13802
1393755993417,1.13678
1393756053417,1.13348
1393756113417,1.13650
1393756173417,1.13294
1393756233417,1.12946
1393756293417,1.13971
1393756353417,1.13377
1393756413417,1.14629
1393756473417,1.13886
1393756533417,1.13487
1393756593417,1.13937
1393756653417,1.12797
1393756713417,1.13419
1393756773417,1.13020
1393756833417,1.13680
1393756893417,1.12468
1393756953417,1.13364
1393757013417,1.13670
1393757073417,1.13681
1393757133417,1.14496
1393757193417,1.14185
1393757253417,1.13995
1393757313417,1.13075
1393757373417,1.15962
1393757433417,1.13952
1393757493417,1.13264
1393757553417,1.13993
1393757613417,1.12747
1393757673417,1.15251
1393757733417,1.14317
1393757793417,1.13181
1393757853417,1.14685
1393757913417,1.14203
1393757973417,1.14170
1393758033429,1.13582
1393758093429,1.14128
1393758153429,1.13618
1393758213429,1.14105
1393758273429,1.13736
1393758333429,1.14482
1393758393429,1.14524
1393758453429,1.13710
1393758513429,1.13837
1393758573429,1.13627
1393758633429,1.14018
1393758693429,1.14434
1393758753429,1.13931
1393758813429,1.13388
1393758873429,1.13946
1393758933429,1.13365
1393758993429,1.14098
1393759053429,1.13772
1393759113429,1.14083
1393759173429,1.14406
1393759233429,1.14581
1393759293429,1.14516
1393759353429,1.15328
1393759413429,1.15190
1393759473429,1.15289
1393759533429,1.15644
1393759593429,1.16233
1393759653429,1.16076
1393759713429,1.15000
1393759773429,1.15746
1393759833429,1.15833
1393759893429,1.15881
1393759953429,1.16419
1393760013429,1.16313
1393760073429,1.15057
1393760133429,1.16041
1393760193429,1.15816
1393760253429,1.16690
1393760313429,1.15953
1393760373429,1.15514
1393760433429,1.15510
1393760493429,1.15884
1393760553429,1.16494
1393760613429,1.16059
1393760673429,1.16641
1393760733429,1.16847
1393760793429,1.17071
1393760853429,1.14967
1393760913429,1.16495
1393760973429,1.16546
1393761033429,1.16705
1393761093429,1.16776
1393761153429,1.16051
1393761213429,1.16153
1393761273429,1.15905
1393761333429,1.16460
1393761393429,1.16902
1393761453429,1.16708
1393761513429,1.16954
1393761573429,1.16889
1393761633441,1.17339
1393761693441,1.17006
1393761753441,1.17974
1393761813441,1.17930
1393761873441,1.18516
1393761933441,1.19209
1393761993441,1.18683
1393762053441,1.20393
1393762113441,1.19366
1393762173441,1.20556
1393762233441,1.20315
1393762293441,1.20660
1393762353441,1.20566
1393762413441,1.21092
1393762473441,1.21134
1393762533441,1.20811
1393762593441,1.20481
1393762653441,1.20512
1393762713441,1.19197
1393762773441,1.20546
1393762833441,1.20044
1393762893441,1.19408
1393762953441,1.19301
1393763013441,1.19469
1393763073441,1.18445
1393763133441,1.19457
1393763193441,1.18950
1393763253441,1.18734
1393763313441,1.18245
1393763373441,1.18322
1393763433441,1.17922
1393763493441,1.17969
1393763553441,1.18085
1393763613441,1.17603
1393763673441,1.17707
1393763733441,1.17926
1393763793441,1.16441
1393763853441,1.17111
1393763913441,1.16968
1393763973441,1.17978
1393764033441,1.18386
1393764093441,1.16959
1393764153441,1.17812
1393764213441,1.17497
1393764273441,1.17553
1393764333441,1.17619
1393764393441,1.18565
1393764453441,1.18891
1393764513441,1.18815
1393764573441,1.17106
1393764633441,1.19048
1393764693441,1.19462
1393764753441,1.18663
1393764813441,1.18879
1393764873441,1.19605
1393764933441,1.19983
1393764993441,1.19492
1393765053441,1.19553
1393765113441,1.19933
1393765173441,1.19587
1393765233454,1.20165
1393765293454,1.20642
1393765353454,1.19736
1393765413454,1.20297
1393765473454,1.19996
1393765533454,1.20354
1393765593454,1.20005
1393765653454,1.20374
1393765713454,1.20167
1393765773454,1.20303
1393765833454,1.20200
1393765893454,1.20545
1393765953454,1.20934
1393766013454,1.21364
1393766073454,1.19905
1393766133454,1.20523
1393766193454,1.19883
1393766253454,1.18957
1393766313454,1.18961
1393766373454,1.18744
1393766433454,1.19610
1393766493454,1.18100
1393766553454,1.18620
1393766613454,1.21751
1393767753454,1.18740
1393767813454,1.17200
1393767873454,1.18570
1393767933454,1.17447
1393767993454,1.17819
1393768053454,1.17407
1393768113454,1.17347
1393768173454,1.16430
1393768233454,1.15907
1393768293454,1.16207
1393768353454,1.16192
1393768413454,1.16817
1393768473454,1.16299
1393768533454,1.16310
1393768593454,1.16336
1393768653454,1.15296
1393768713454,1.16364
1393768773454,1.16459
1393768833466,1.15245
1393768893466,1.15965
1393768953466,1.16059
1393769013466,1.16634
1393769073466,1.16091
1393769133466,1.15166
1393769193466,1.16144
1393769253466,1.15845
1393769313466,1.15464
1393769373466,1.15606
1393769433466,1.16645
1393769493466,1.15626
1393769553466,1.17426
1393769613466,1.16377
1393769673466,1.16839
1393769733466,1.15980
1393769793466,1.16159
1393769853466,1.15937
1393769913466,1.15992
1393769973466,1.16189
1393770033466,1.15621
1393770093466,1.15747
1393770153466,1.16102
1393770213466,1.14738
1393770273466,1.15995
1393770333466,1.15885
1393770393466,1.16570
1393770453466,1.15178
1393770513466,1.15492
1393770573466,1.15543
1393770633466,1.15557
1393770693466,1.15631
1393770753466,1.14953
1393770813466,1.15521
1393770873466,1.14857
1393770933466,1.15163
1393770993466,1.15228
1393771053466,1.15576
1393771113466,1.14518
1393771173466,1.15027
1393771233466,1.14057
1393771293466,1.15219
1393771353466,1.14342
1393771413466,1.14680
1393771473466,1.14734
1393771533466,1.14323
1393771593466,1.14250
1393771653466,1.14558
1393771713466,1.14620
1393771773466,1.14267
1393771833466,1.13893
1393771893466,1.14275
1393771953466,1.13825
1393772013466,1.14563
1393772073466,1.13757
1393772133466,1.14256
1393772193466,1.14433
1393772253466,1.14098
1393772313466,1.14524
1393772373466,1.14303
1393772433478,1.13740
1393772493478,1.13662
1393772553478,1.14087
1393772613478,1.13792
1393772673478,1.14592
1393772733478,1.14763
1393772793478,1.14489
1393772853478,1.14757
1393772913478,1.14272
1393772973478,1.14103
1393773033478,1.14606
1393773093478,1.14595
1393773153478,1.14872
1393773213478,1.14463
1393773273478,1.14706
1393773333478,1.13614
1393773393478,1.14629
1393773453478,1.14611
1393773513478,1.14393
1393773573478,1.15496
1393773633478,1.15814
1393773693478,1.14678
1393773753478,1.14902
1393773813478,1.14866
1393773873478,1.14527
1393773933478,1.14768
1393773993478,1.13932
1393774053478,1.15021
1393774113478,1.14030
1393774173478,1.14886
1393774233478,1.15325
1393774293478,1.14410
1393774353478,1.14349
1393774413478,1.15215
1393774473478,1.15049
1393774533478,1.16148
1393774593478,1.14269
1393774653478,1.15561
1393774713478,1.14069
1393774773478,1.14673
1393774833478,1.14737
1393774893478,1.15160
1393774953478,1.14328
1393775013478,1.15120
1393775073478,1.14492
1393775133478,1.15173
1393775193478,1.13819
1393775253478,1.14515
1393775313478,1.14705
1393775373478,1.15246
1393775433478,1.14405
1393775493478,1.15097
1393775553478,1.15226
1393775613478,1.14380
1393775673478,1.15405
1393775733478,1.16556
1393775793478,1.14972
1393775853478,1.16711
1393775913478,1.15426
1393775973478,1.16510
1393776033490,1.16158
1393776093490,1.15350
1393776153490,1.15792
1393776213490,1.14308
1393776273490,1.15245
1393776333490,1.15473
1393776393490,1.15431
1393776453490,1.16406
1393776513490,1.15783
1393776573490,1.16161
1393776633490,1.16386
1393776693490,1.16189
1393776753490,1.17207
1393776813490,1.16587
1393776873490,1.16725
1393776933490,1.16643
1393776993490,1.16723
1393777053490,1.18093
1393777113490,1.18096
1393777173490,1.18480
1393777233490,1.17578
1393777293490,1.19356
1393777353490,1.19415
1393777413490,1.18968
1393777473490,1.19811
1393777533490,1.21640
1393777593490,1.22872
1393777653490,1.21717
1393777713490,1.22647
1393777773490,1.22442
1393777833490,1.23375
1393777893490,1.23878
1393777953490,1.23526
1393778013490,1.24441
1393778073490,1.24469
1393778133490,1.24672
1393778193490,1.24429
1393778253490,1.23602
1393778313490,1.24594
1393778373490,1.24663
1393778433490,1.23671
1393778493490,1.23223
1393778553490,1.23717
1393778613490,1.23760
1393778673490,1.24317
1393778733490,1.23976
1393778793490,1.24162
1393778853490,1.25108
1393778913490,1.26335
1393778973490,1.26179
1393779033490,1.25205
1393779093490,1.26055
1393779153490,1.25644
1393779213490,1.24717
1393779273490,1.24907
1393779333490,1.25028
1393779393490,1.24136
1393779453490,1.24667
1393779513490,1.24397
1393779573490,1.24205
1393779633502,1.24233
1393779693502,1.23597
1393779753502,1.23303
1393779813502,1.22324
1393779873502,1.21832
1393779933502,1.21148
1393779993502,1.21428
1393780053502,1.21445
1393780113502,1.21485
1393780173502,1.22023
1393780233502,1.20851
1393780293502,1.21494
1393780353502,1.21109
1393780413502,1.20181
1393780473502,1.19473
1393780533502,1.18953
1393780593502,1.19137
1393780653502,1.18795
1393780713502,1.19103
1393780773502,1.18450
1393780833502,1.18684
1393780893502,1.18790
1393780953502,1.17219
1393781013502,1.17978
1393781073502,1.17956
1393781133502,1.17446
1393781193502,1.16854
1393781253502,1.16792
1393781313502,1.16602
1393781373502,1.16586
1393781433502,1.16625
1393781493502,1.16287
1393781553502,1.15417
1393781613502,1.17251
1393781673502,1.17181
1393781733502,1.17273
1393781793502,1.15660
1393781853502,1.16205
1393781913502,1.15797
1393781973502,1.15686
1393782033502,1.16129
1393782093502,1.15914
1393782153502,1.15736
1393782213502,1.16331
1393782273502,1.16358
1393782333502,1.15490
1393782393502,1.15173
1393782453502,1.15884
1393782513502,1.15821
1393782573502,1.15415
1393782633502,1.15959
1393782693502,1.15176
1393782753502,1.16169
1393782813502,1.16110
1393782873502,1.16090
1393782933502,1.16405
1393782993502,1.16637
1393783053502,1.15576
1393783113502,1.15870
1393783173502,1.15548
1393783233514,1.15405
1393783293514,1.15608
1393783353514,1.15077
1393783413514,1.15156
1393783473514,1.15399
1393783533514,1.15247
1393783593514,1.14335
1393783653514,1.14533
1393783713514,1.14420
1393783773514,1.14047
1393783833514,1.15518
1393783893514,1.16257
1393783953514,1.16200
1393784013514,1.17995
1393784073514,1.16813
1393784133514,1.17578
1393784193514,1.18077
1393784253514,1.17747
1393784313514,1.18276
1393784373514,1.18071
1393784433514,1.18034
1393784493514,1.16755
1393784553514,1.16903
1393784613514,1.16965
1393784673514,1.16672
1393784733514,1.16419
1393784793514,1.16571
1393784853514,1.16482
1393784913514,1.15331
1393784973514,1.16346
1393785033514,1.15474
1393785093514,1.15180
1393785153514,1.14283
1393785213514,1.14101
1393785273514,1.14732
1393785333514,1.14947
1393785393514,1.14861
1393785453514,1.15259
1393785513514,1.14606
1393785573514,1.13802
1393785633514,1.13763
1393785693514,1.13433
1393785753514,1.14113
1393785813514,1.14387
1393785873514,1.14677
1393785933514,1.14563
1393785993514,1.14307
1393786053514,1.14178
1393786113514,1.15119
1393786173514,1.15043
1393786233514,1.15169
1393786293514,1.15666
1393786353514,1.15907
1393786413514,1.14905
1393786473514,1.15598
1393786533514,1.14834
1393786593514,1.15504
1393786653514,1.15406
1393786713514,1.14996
1393786773514,1.14788
1393786833526,1.15022
1393786893526,1.14427
1393786953526,1.14556
1393787013526,1.14639
1393787073526,1.13727
1393787133526,1.14488
1393787193526,1.14361
1393787253526,1.14390
1393787313526,1.13782
1393787373526,1.14254
1393787433526,1.14596
1393787493526,1.14751
1393787553526,1.14337
1393787613526,1.13709
1393787673526,1.13882
1393787733526,1.14453
1393787793526,1.14795
1393787853526,1.14113
1393787913526,1.14492
1393787973526,1.14403
1393788033526,1.13433
1393788093526,1.15115
1393788153526,1.14512
1393788213526,1.14691
1393788273526,1.14578
1393788333526,1.15427
1393788393526,1.14367
1393788453526,1.15533
1393788513526,1.15325
1393788573526,1.14170
1393788633526,1.15406
1393788693526,1.14313
1393788753526,1.15159
1393788813526,1.14483
1393788873526,1.15122
1393788933526,1.15136
1393788993526,1.14502
1393789053526,1.13791
1393789113526,1.14396
1393789173526,1.15163
1393789233526,1.15106
1393789293526,1.15208
1393789353526,1.14617
1393789413526,1.14532
1393789473526,1.14545
1393789533526,1.14683
1393789593526,1.14128
1393789653526,1.14321
1393789713526,1.13163
1393789773526,1.13550
1393789833526,1.13754
1393789893526,1.14307
1393789953526,1.13804
1393790013526,1.14226
1393790073526,1.14027
1393790133526,1.13668
1393790193526,1.13531
1393790253526,1.13449
1393790313526,1.14104
1393790373526,1.13705
1393790433538,1.13404
1393790493538,1.13183
1393790553538,1.12660
1393790613538,1.13575
1393790673538,1.13458
1393790733538,1.13180
1393790793538,1.12922
1393790853538,1.13096
1393790913538,1.12075
1393790973538,1.12830
1393791033538,1.13624
1393791093538,1.12546
1393791153538,1.12145
1393791213538,1.13638
1393791273538,1.12688
1393791333538,1.12577
1393791393538,1.13156
1393791453538,1.13344
1393791513538,1.13235
1393791573538,1.13830
1393791633538,1.13162
1393791693538,1.12774
1393791753538,1.13501
1393791813538,1.13101
1393791873538,1.13449
1393791933538,1.13547
1393791993538,1.14529
1393792053538,1.15056
1393792113538,1.13671
1393792173538,1.15300
1393792233538,1.14567
1393792293538,1.15417
1393792353538,1.16703
1393792413538,1.15931
1393792473538,1.15940
1393792533538,1.15618
1393792593538,1.16797
1393792653538,1.16444
1393792713538,1.16310
1393792773538,1.15775
1393792833538,1.16129
1393792893538,1.16435
1393792953538,1.14827
1393793013538,1.15067
1393793073538,1.14221
1393793133538,1.14952
1393793193538,1.14233
1393793253538,1.14827
1393793313538,1.13842
1393793373538,1.14903
1393793433538,1.13819
1393793493538,1.13758
1393793553538,1.14171
1393793613538,1.13159
1393793673538,1.13091
1393793733538,1.13396
1393793793538,1.14076
1393793853538,1.13381
1393793913538,1.13537
1393793973538,1.13649
1393794033550,1.15110
1393794093550,1.13678
1393794153550,1.13079
1393794213550,1.14641
1393794273550,1.14283
1393794333550,1.15172
1393794393550,1.14428
1393794453550,1.14474
1393794513550,1.15762
1393794573550,1.16162
1393794633550,1.16408
1393794693550,1.16768
1393794753550,1.17506
1393794813550,1.16191
1393794873550,1.17010
1393794933550,1.17090
1393794993550,1.17618
1393795053550,1.17419
1393795113550,1.18134
1393795173550,1.16670
1393795233550,1.16738
1393795293550,1.17084
1393795353550,1.16540
1393795413550,1.16664
1393795473550,1.16509
1393795533550,1.16335
1393795593550,1.15642
1393795653550,1.16126
1393795713550,1.15381
1393795773550,1.15830
1393795833550,1.15372
1393795893550,1.15110
1393795953550,1.15814
1393796013550,1.16202
1393796073550,1.16503
1393796133550,1.16127
1393796193550,1.15484
1393796253550,1.16682
1393796313550,1.16379
1393796373550,1.15999
1393796433550,1.15346
1393796493550,1.15591
1393796553550,1.15635
1393796613550,1.15719
1393796673550,1.16487
1393796733550,1.15460
1393796793550,1.15236
1393796853550,1.14621
1393796913550,1.13850
1393796973550,1.13670